GFSNW_prec_snow_120.txt.gz
Snowfall_Accumulation
0.0 0.0 0.0 0.0 0.0 0.0 0.0 0.0 10.2 0.0 0.0 5.3 6.8 7.0 2.1 0.0 0.0 0.0 0.0 0.0 0.0 0.0 0.0 0.0 0.0 0.0 0.0 0.0 0.0 0.0 0.0 0.6 1.2 0.5 0.0 0.0 0.0 0.0 0.0 2.0 0.4 1.1 0.5 2.0
0.0 0.0 0.0 0.0 0.0 0.0 0.0 0.0 1.7 0.0 0.0 7.3 5.1 0.0 0.0 0.0 0.0 0.0 0.0 0.0 0.0 0.0 0.0 0.0 0.0 0.0 0.0 0.0 0.0 0.0 0.0 1.2 0.9 1.4 0.4 0.0 0.8 0.1 0.1 1.4 2.2 2.1 0.8 0.2
0.0 0.0 0.0 0.0 0.0 0.0 0.0 0.0 7.7 0.0 0.0 0.0 0.0 0.0 0.4 0.0 0.0 0.0 0.0 0.0 0.0 0.0 0.0 0.0 0.0 0.0 0.0 0.0 0.0 0.0 0.0 1.6 1.0 1.0 2.4 3.5 3.2 0.3 0.7 2.8 5.7 0.2 0.1 0.0
0.0 0.0 0.0 0.0 0.0 0.0 0.0 0.0 2.0 0.0 6.9 1.0 0.0 0.0 0.0 0.0 0.0 0.0 0.0 0.0 0.0 0.0 0.0 0.0 0.0 0.0 0.0 0.0 0.0 0.0 0.0 2.3 0.5 1.0 1.6 5.6 3.1 0.9 0.9 3.6 0.7 2.2 0.1 0.3
0.0 0.0 0.0 0.0 0.0 0.0 0.0 0.0 0.0 0.0 0.0 0.0 0.0 0.0 0.0 0.0 0.0 0.0 0.0 0.0 0.0 0.0 0.0 0.0 0.0 0.0 0.0 0.0 0.0 0.0 0.0 3.6 3.2 3.3 1.9 3.4 2.6 0.4 0.7 0.5 0.1 0.0 0.0 0.0
0.0 0.0 0.0 0.0 0.0 0.0 0.0 0.0 0.0 0.0 0.0 0.0 0.0 0.0 0.0 0.0 0.0 0.0 0.0 0.0 0.0 0.0 0.0 0.0 0.0 0.0 0.0 0.0 0.0 0.0 1.7 4.5 6.3 4.7 0.6 1.4 1.8 0.6 0.2 0.0 0.0 0.0 0.3 0.0
0.0 0.0 0.0 0.0 0.0 0.0 0.0 0.0 0.0 0.0 0.0 0.0 0.0 0.0 0.0 0.0 0.0 0.0 0.0 0.0 0.0 0.0 0.0 0.0 0.0 0.0 0.0 0.0 0.0 0.0 0.0 4.0 7.1 8.2 4.0 4.3 0.0 0.0 0.0 0.0 0.0 0.0 0.0 0.0
0.0 0.0 0.0 0.0 0.0 0.0 0.0 0.0 0.0 0.0 0.0 0.0 0.0 0.0 0.0 0.0 0.0 0.0 0.0 0.0 0.0 0.0 0.0 0.0 0.0 0.0 0.0 0.0 0.0 0.0 0.0 0.9 3.9 4.2 2.8 0.0 0.0 0.0 0.0 0.0 0.0 0.0 0.0 0.0
0.0 0.0 0.0 0.0 0.0 0.0 0.0 0.0 0.0 0.0 0.0 0.0 0.0 0.0 0.0 0.0 0.0 0.0 0.0 0.0 0.0 0.0 0.0 0.0 1.0 0.0 0.0 0.0 0.0 0.0 0.0 0.0 1.8 1.3 2.0 0.7 0.0 0.0 0.0 0.0 0.0 0.0 0.0 0.0
0.0 0.0 0.0 0.0 0.0 0.0 0.0 0.0 0.0 0.0 0.0 0.0 0.0 0.0 0.0 0.0 0.0 0.0 0.0 0.0 0.0 0.0 0.0 0.5 0.6 0.0 0.0 0.0 0.0 0.1 0.4 0.4 1.5 1.2 1.3 0.0 0.0 0.0 0.0 0.1 0.0 0.0 0.0 0.0
0.0 0.0 0.0 0.0 0.0 0.0 0.0 0.0 0.0 0.0 0.0 0.0 0.0 0.0 0.0 0.0 0.0 0.0 0.0 0.0 0.0 0.1 0.3 0.0 0.1 0.2 0.0 0.0 0.0 0.0 0.0 0.1 0.4 0.4 0.8 0.0 0.0 0.0 0.0 0.0 0.0 0.0 0.0 0.0
0.0 0.0 0.0 0.0 0.0 0.0 0.0 0.0 0.0 0.0 0.1 0.0 0.0 0.0 0.0 0.0 0.0 0.0 0.0 0.0 0.0 0.0 0.3 0.2 0.0 0.0 0.0 0.0 0.0 0.0 0.0 0.0 0.0 0.0 0.0 0.0 0.0 0.0 0.0 0.0 0.0 0.0 0.0 0.0
0.0 0.0 0.0 0.0 0.0 0.0 0.0 0.0 0.0 0.0 0.4 0.0 0.0 0.0 0.0 0.0 0.0 0.0 0.0 0.0 0.0 0.0 0.1 0.2 0.1 0.0 0.0 0.1 0.0 0.0 0.0 0.0 0.0 0.0 0.0 0.0 0.0 0.0 0.0 0.0 0.0 0.0 0.0 0.0
0.0 0.0 0.0 0.0 0.0 0.0 0.0 0.0 0.0 0.0 0.6 1.6 0.0 0.0 0.0 0.0 0.0 0.0 0.0 0.0 0.0 0.0 0.7 0.6 0.3 0.3 0.0 0.0 0.0 0.0 0.0 0.0 0.0 0.0 0.0 0.0 0.0 0.0 0.0 0.0 0.0 0.0 0.0 0.0
0.0 0.0 0.0 0.0 0.0 0.0 0.0 0.0 0.0 0.0 0.7 2.6 1.1 0.0 0.0 0.0 0.0 0.0 0.0 0.0 0.0 0.4 1.1 1.7 1.0 0.0 0.0 0.0 0.0 0.0 0.0 0.0 0.0 0.0 0.0 0.0 0.0 0.0 0.0 0.0 0.0 0.0 0.0 0.0
0.0 0.0 0.0 0.0 0.0 0.0 0.0 0.0 0.0 0.0 0.0 3.6 3.2 0.0 0.0 0.0 0.0 0.0 0.0 0.0 0.0 1.3 0.9 2.2 0.0 0.0 0.0 0.9 0.1 0.0 0.0 0.0 0.0 0.0 0.0 0.0 0.0 0.0 0.0 0.0 0.0 0.0 0.0 0.0
0.0 0.0 0.0 0.0 0.0 0.0 0.2 0.6 0.0 0.0 0.0 4.1 7.5 4.4 0.6 0.0 0.0 0.0 0.0 0.0 0.3 3.1 2.8 0.0 1.9 1.4 1.8 1.6 0.0 0.0 0.0 0.0 0.0 0.0 0.0 0.0 0.0 0.0 0.0 0.0 0.0 0.0 0.0 0.0
0.0 0.0 0.0 0.0 0.0 0.0 0.0 0.0 0.0 0.0 3.7 6.9 10.1 8.2 6.9 0.0 0.0 0.0 0.0 0.0 0.2 5.2 1.5 0.0 0.6 0.0 2.1 1.5 0.0 0.0 0.0 0.0 0.0 0.0 0.0 0.0 0.0 0.0 0.0 0.0 0.0 0.0 0.0 0.0
0.0 0.0 0.0 0.0 0.0 0.0 0.0 0.0 0.0 0.0 0.2 7.8 7.5 8.9 7.9 0.6 0.3 0.3 0.1 0.0 2.0 0.9 1.6 0.0 0.0 1.2 2.4 0.0 0.0 0.1 0.0 0.0 0.0 0.0 0.0 0.0 0.0 0.0 0.0 0.0 0.0 0.0 0.0 0.0
0.0 0.0 0.0 0.6 0.0 0.0 0.0 0.0 3.2 4.7 4.7 5.3 6.5 4.3 2.7 2.4 4.7 1.2 1.3 0.3 3.3 5.4 0.0 0.0 2.0 0.0 0.0 0.0 0.5 0.2 0.1 0.0 0.0 4.0 2.7 1.0 1.6 0.3 0.3 0.0 0.1 0.0 0.0 0.0
0.0 0.1 0.5 0.0 0.0 0.0 0.1 6.6 5.6 3.5 3.4 3.7 3.7 3.0 3.3 0.0 4.4 2.3 0.7 3.7 2.7 6.5 3.2 1.2 1.7 2.8 1.1 0.0 0.3 0.0 0.1 0.2 0.0 0.0 0.5 1.7 2.9 3.1 1.5 0.6 3.2 1.5 2.4 2.6
0.0 0.0 0.0 0.0 4.7 8.3 10.3 10.1 2.3 1.5 1.8 1.7 1.8 1.2 0.6 1.7 0.0 3.0 2.2 3.1 3.0 2.7 1.6 4.2 3.4 2.3 1.4 1.9 0.6 0.3 0.1 0.0 0.1 0.2 2.1 0.9 0.9 1.2 1.4 2.6 2.9 2.7 2.9 2.4
0.0 0.4 5.1 5.5 7.4 8.6 6.4 4.1 1.9 0.6 0.5 0.6 1.0 1.3 0.3 0.0 0.3 2.4 3.1 2.7 1.2 2.6 4.6 3.2 1.5 0.5 0.0 0.5 1.7 1.6 1.6 0.3 1.3 2.0 0.0 0.7 0.5 0.4 0.3 0.3 0.1 0.0 0.0 0.3
0.1 6.6 7.1 4.7 3.6 3.2 2.4 1.3 1.1 0.0 0.3 0.0 0.1 1.0 1.8 0.4 1.9 1.9 3.1 0.6 2.7 5.2 2.5 2.0 0.3 0.5 0.4 0.2 0.4 0.7 0.8 1.2 1.7 3.9 3.9 1.9 1.0 0.4 0.1 0.0 0.0 0.0 0.0 0.0
7.2 8.7 4.7 2.4 1.8 0.8 0.4 0.1 0.5 0.0 0.0 0.0 0.2 0.4 0.9 2.2 3.5 2.7 2.5 2.9 3.7 2.9 2.6 1.3 0.6 0.6 0.8 0.5 0.3 0.2 0.5 0.7 1.6 1.6 2.6 3.5 1.9 0.7 0.0 0.0 0.1 0.3 0.6 0.0
11.5 9.1 3.0 1.0 0.6 0.3 0.1 0.0 0.1 0.0 0.0 0.1 0.5 1.1 1.7 1.2 2.5 2.4 2.0 3.1 2.8 2.1 1.4 0.8 0.4 0.7 0.0 0.2 0.3 0.0 0.0 0.0 0.2 1.3 1.7 2.3 2.0 1.2 0.6 0.5 0.1 0.2 1.3 0.8
13.4 2.7 0.7 0.8 0.4 0.4 0.3 0.0 0.0 0.0 0.2 1.6 3.1 5.1 1.6 1.4 2.7 0.9 0.5 1.6 1.3 0.9 0.0 0.1 0.0 0.1 0.0 0.0 0.0 0.0 0.0 0.0 0.0 0.6 1.0 1.7 2.3 2.3 1.2 1.5 1.3 1.0 0.7 0.7

GFSNW_prec_snow_123.txt.gz
Snowfall_Accumulation
0.0 0.0 0.0 0.0 0.0 0.0 0.0 0.0 10.2 0.0 0.0 5.3 6.8 7.0 2.1 0.0 0.0 0.0 0.0 0.0 0.0 0.0 0.0 0.0 0.0 0.0 0.0 0.0 0.0 0.0 0.0 0.6 1.2 0.5 0.0 0.0 0.0 0.0 0.0 2.0 0.4 1.1 0.5 2.0
0.0 0.0 0.0 0.0 0.0 0.0 0.0 0.0 1.7 0.0 0.0 7.3 5.1 0.0 0.0 0.0 0.0 0.0 0.0 0.0 0.0 0.0 0.0 0.0 0.0 0.0 0.0 0.0 0.0 0.0 0.0 1.2 0.9 1.4 0.4 0.0 0.8 0.1 0.1 1.4 2.2 2.1 0.8 0.2
0.0 0.0 0.0 0.0 0.0 0.0 0.0 0.0 7.7 0.0 0.0 0.0 0.0 0.0 0.4 0.0 0.0 0.0 0.0 0.0 0.0 0.0 0.0 0.0 0.0 0.0 0.0 0.0 0.0 0.0 0.0 1.6 1.0 1.0 2.4 3.5 3.2 0.3 0.7 2.8 5.7 0.2 0.1 0.0
0.0 0.0 0.0 0.0 0.0 0.0 0.0 0.0 2.0 0.0 6.9 1.0 0.0 0.0 0.0 0.0 0.0 0.0 0.0 0.0 0.0 0.0 0.0 0.0 0.0 0.0 0.0 0.0 0.0 0.0 0.0 2.3 0.5 1.0 1.6 5.6 3.1 0.9 0.9 3.6 0.7 2.2 0.1 0.3
0.0 0.0 0.0 0.0 0.0 0.0 0.0 0.0 0.0 0.0 0.0 0.0 0.0 0.0 0.0 0.0 0.0 0.0 0.0 0.0 0.0 0.0 0.0 0.0 0.0 0.0 0.0 0.0 0.0 0.0 0.0 3.6 3.2 3.3 1.9 3.4 2.6 0.4 0.7 0.5 0.1 0.0 0.0 0.0
0.0 0.0 0.0 0.0 0.0 0.0 0.0 0.0 0.0 0.0 0.0 0.0 0.0 0.0 0.0 0.0 0.0 0.0 0.0 0.0 0.0 0.0 0.0 0.0 0.0 0.0 0.0 0.0 0.0 0.0 1.7 4.5 6.3 4.7 0.6 1.4 1.8 0.6 0.2 0.0 0.0 0.0 0.3 0.0
0.0 0.0 0.0 0.0 0.0 0.0 0.0 0.0 0.0 0.0 0.0 0.0 0.0 0.0 0.0 0.0 0.0 0.0 0.0 0.0 0.0 0.0 0.0 0.0 0.0 0.0 0.0 0.0 0.0 0.0 0.0 4.0 7.1 8.2 4.0 4.3 0.0 0.0 0.0 0.0 0.0 0.0 0.0 0.0
0.0 0.0 0.0 0.0 0.0 0.0 0.0 0.0 0.0 0.0 0.0 0.0 0.0 0.0 0.0 0.0 0.0 0.0 0.0 0.0 0.0 0.0 0.0 0.0 0.0 0.0 0.0 0.0 0.0 0.0 0.0 0.9 3.9 4.2 2.8 0.0 0.0 0.0 0.0 0.0 0.0 0.0 0.0 0.0
0.0 0.0 0.0 0.0 0.0 0.0 0.0 0.0 0.0 0.0 0.0 0.0 0.0 0.0 0.0 0.0 0.0 0.0 0.0 0.0 0.0 0.0 0.0 0.0 1.0 0.0 0.0 0.0 0.0 0.0 0.0 0.0 1.8 1.3 2.0 0.7 0.0 0.0 0.0 0.0 0.0 0.0 0.0 0.0
0.0 0.0 0.0 0.0 0.0 0.0 0.0 0.0 0.0 0.0 0.0 0.0 0.0 0.0 0.0 0.0 0.0 0.0 0.0 0.0 0.0 0.0 0.0 0.5 0.6 0.0 0.0 0.0 0.0 0.1 0.4 0.4 1.5 1.2 1.3 0.0 0.0 0.0 0.0 0.1 0.0 0.0 0.0 0.0
0.0 0.0 0.0 0.0 0.0 0.0 0.0 0.0 0.0 0.0 0.0 0.0 0.0 0.0 0.0 0.0 0.0 0.0 0.0 0.0 0.0 0.1 0.3 0.0 0.1 0.2 0.0 0.0 0.0 0.0 0.0 0.1 0.4 0.4 0.8 0.0 0.0 0.0 0.0 0.0 0.0 0.0 0.0 0.0
0.0 0.0 0.0 0.0 0.0 0.0 0.0 0.0 0.0 0.0 0.1 0.0 0.0 0.0 0.0 0.0 0.0 0.0 0.0 0.0 0.0 0.0 0.3 0.2 0.0 0.0 0.0 0.0 0.0 0.0 0.0 0.0 0.0 0.0 0.0 0.0 0.0 0.0 0.0 0.0 0.0 0.0 0.0 0.0
0.0 0.0 0.0 0.0 0.0 0.0 0.0 0.0 0.0 0.0 0.4 0.0 0.0 0.0 0.0 0.0 0.0 0.0 0.0 0.0 0.0 0.0 0.1 0.2 0.1 0.0 0.0 0.1 0.0 0.0 0.0 0.0 0.0 0.0 0.0 0.0 0.0 0.0 0.0 0.0 0.0 0.0 0.0 0.0
0.0 0.0 0.0 0.0 0.0 0.0 0.0 0.0 0.0 0.0 0.6 1.6 0.0 0.0 0.0 0.0 0.0 0.0 0.0 0.0 0.0 0.0 0.7 0.6 0.3 0.3 0.0 0.0 0.0 0.0 0.0 0.0 0.0 0.0 0.0 0.0 0.0 0.0 0.0 0.0 0.0 0.0 0.0 0.0
0.0 0.0 0.0 0.0 0.0 0.0 0.0 0.0 0.0 0.0 0.7 2.6 1.1 0.0 0.0 0.0 0.0 0.0 0.0 0.0 0.0 0.4 1.1 1.7 1.0 0.0 0.0 0.0 0.0 0.0 0.0 0.0 0.0 0.0 0.0 0.0 0.0 0.0 0.0 0.0 0.0 0.0 0.0 0.0
0.0 0.0 0.0 0.0 0.0 0.0 0.0 0.0 0.0 0.0 0.0 3.6 3.2 0.0 0.0 0.0 0.0 0.0 0.0 0.0 0.0 1.3 0.9 2.2 0.0 0.0 0.0 0.9 0.1 0.0 0.0 0.0 0.0 0.0 0.0 0.0 0.0 0.0 0.0 0.0 0.0 0.0 0.0 0.0
0.0 0.0 0.0 0.0 0.0 0.0 0.2 0.6 0.0 0.0 0.0 4.1 7.5 4.4 0.6 0.0 0.0 0.0 0.0 0.0 0.3 3.1 2.8 0.0 1.9 1.4 1.8 1.6 0.0 0.0 0.0 0.0 0.0 0.0 0.0 0.0 0.0 0.0 0.0 0.0 0.0 0.0 0.0 0.0
0.0 0.0 0.0 0.0 0.0 0.0 0.0 0.0 0.0 0.0 3.7 6.9 10.2 8.2 6.9 0.0 0.0 0.0 0.0 0.0 0.2 5.2 1.5 0.0 0.6 0.0 2.1 1.5 0.0 0.0 0.0 0.0 0.0 0.0 0.0 0.0 0.0 0.0 0.0 0.0 0.0 0.0 0.0 0.0
0.0 0.0 0.0 0.0 0.0 0.0 0.0 0.0 0.0 0.0 0.2 7.8 7.5 8.9 7.9 0.6 0.3 0.3 0.1 0.0 2.0 0.9 1.7 0.0 0.0 1.2 2.4 0.0 0.0 0.1 0.0 0.0 0.0 0.0 0.0 0.0 0.0 0.0 0.0 0.0 0.0 0.0 0.0 0.0
0.0 0.0 0.0 0.6 0.0 0.0 0.0 0.0 3.2 4.7 4.7 5.4 6.5 4.3 2.7 2.4 4.7 1.2 1.3 0.3 3.3 5.4 0.0 0.0 2.1 0.0 0.0 0.0 0.5 0.2 0.1 0.0 0.0 4.0 2.7 1.0 1.6 0.3 0.3 0.0 0.1 0.0 0.0 0.0
0.0 0.1 0.5 0.0 0.0 0.0 0.1 6.6 5.6 3.5 3.5 3.7 3.7 3.0 3.3 0.0 4.4 2.3 0.7 3.7 2.7 6.5 3.2 1.2 1.7 2.8 1.1 0.0 0.3 0.0 0.1 0.2 0.0 0.0 0.5 1.7 2.9 3.1 1.5 0.6 3.2 1.5 2.4 2.6
0.0 0.0 0.0 0.0 4.7 8.3 10.4 10.2 2.4 1.5 1.8 1.7 1.8 1.2 0.6 1.7 0.0 3.0 2.2 3.1 3.1 2.8 1.6 4.3 3.4 2.3 1.4 1.9 0.6 0.3 0.1 0.0 0.1 0.2 2.1 0.9 0.9 1.2 1.4 2.6 2.9 2.7 2.9 2.4
0.0 0.4 5.1 5.5 7.4 8.6 6.5 4.1 1.9 0.6 0.5 0.6 1.0 1.3 0.3 0.0 0.3 2.4 3.1 2.7 1.3 2.6 4.7 3.2 1.5 0.5 0.0 0.5 1.7 1.6 1.6 0.3 1.3 2.0 0.0 0.7 0.5 0.4 0.3 0.3 0.1 0.0 0.0 0.3
0.1 6.6 7.1 4.7 3.6 3.2 2.4 1.3 1.1 0.0 0.3 0.0 0.1 1.0 1.8 0.4 1.9 1.9 3.1 0.6 2.8 5.4 2.6 2.0 0.3 0.5 0.4 0.2 0.4 0.7 0.8 1.2 1.7 3.9 3.9 1.9 1.0 0.4 0.1 0.0 0.0 0.0 0.0 0.0
7.2 8.7 4.7 2.4 1.8 0.8 0.4 0.1 0.5 0.0 0.0 0.0 0.2 0.4 0.9 2.2 3.5 2.7 2.5 2.9 3.7 2.9 2.6 1.3 0.6 0.6 0.8 0.5 0.3 0.2 0.5 0.7 1.6 1.6 2.6 3.5 1.9 0.7 0.0 0.0 0.1 0.3 0.6 0.0
11.5 9.1 3.0 1.0 0.6 0.3 0.1 0.0 0.1 0.0 0.0 0.1 0.5 1.1 1.7 1.2 2.5 2.5 2.0 3.1 2.8 2.1 1.4 0.8 0.4 0.7 0.0 0.2 0.3 0.0 0.0 0.0 0.2 1.3 1.7 2.3 2.0 1.2 0.6 0.5 0.1 0.2 1.3 0.8
13.6 2.7 0.7 0.8 0.4 0.4 0.3 0.0 0.0 0.0 0.2 1.6 3.1 5.1 1.6 1.4 2.7 0.9 0.5 1.6 1.3 0.9 0.0 0.1 0.0 0.1 0.0 0.0 0.0 0.0 0.0 0.0 0.0 0.6 1.0 1.7 2.3 2.3 1.2 1.5 1.3 1.0 0.7 0.7

GFSNW_prec_snow_129.txt.gz
Snowfall_Accumulation
0.0 0.0 0.0 0.0 0.0 0.0 0.0 0.0 10.2 0.0 0.0 5.3 6.8 7.0 2.1 0.0 0.0 0.0 0.0 0.0 0.0 0.0 0.0 0.0 0.0 0.0 0.0 0.0 0.0 0.0 0.0 0.6 1.2 0.5 0.0 0.0 0.0 0.0 0.0 2.0 0.4 1.1 0.5 2.0
0.0 0.0 0.0 0.0 0.0 0.0 0.0 0.0 1.7 0.0 0.0 7.3 5.1 0.0 0.0 0.0 0.0 0.0 0.0 0.0 0.0 0.0 0.0 0.0 0.0 0.0 0.0 0.0 0.0 0.0 0.0 1.2 0.9 1.4 0.4 0.0 0.8 0.1 0.1 1.4 2.2 2.1 0.8 0.2
0.0 0.0 0.0 0.0 0.0 0.0 0.0 0.0 7.7 0.0 0.0 0.0 0.0 0.0 0.4 0.0 0.0 0.0 0.0 0.0 0.0 0.0 0.0 0.0 0.0 0.0 0.0 0.0 0.0 0.0 0.0 1.6 1.0 1.0 2.4 3.5 3.2 0.3 0.7 2.8 5.7 0.2 0.1 0.0
0.0 0.0 0.0 0.0 0.0 0.0 0.0 0.0 2.0 0.0 6.9 1.0 0.0 0.0 0.0 0.0 0.0 0.0 0.0 0.0 0.0 0.0 0.0 0.0 0.0 0.0 0.0 0.0 0.0 0.0 0.0 2.3 0.5 1.0 1.6 5.6 3.1 0.9 0.9 3.6 0.7 2.2 0.1 0.3
0.0 0.0 0.0 0.0 0.0 0.0 0.0 0.0 0.0 0.0 0.0 0.0 0.0 0.0 0.0 0.0 0.0 0.0 0.0 0.0 0.0 0.0 0.0 0.0 0.0 0.0 0.0 0.0 0.0 0.0 0.0 3.6 3.2 3.3 1.9 3.4 2.6 0.4 0.7 0.5 0.1 0.0 0.0 0.0
0.0 0.0 0.0 0.0 0.0 0.0 0.0 0.0 0.0 0.0 0.0 0.0 0.0 0.0 0.0 0.0 0.0 0.0 0.0 0.0 0.0 0.0 0.0 0.0 0.0 0.0 0.0 0.0 0.0 0.0 1.7 4.5 6.3 4.7 0.6 1.4 1.8 0.6 0.2 0.0 0.0 0.0 0.3 0.0
0.0 0.0 0.0 0.0 0.0 0.0 0.0 0.0 0.0 0.0 0.0 0.0 0.0 0.0 0.0 0.0 0.0 0.0 0.0 0.0 0.0 0.0 0.0 0.0 0.0 0.0 0.0 0.0 0.0 0.0 0.0 4.0 7.1 8.2 4.0 4.3 0.0 0.0 0.0 0.0 0.0 0.0 0.0 0.0
0.0 0.0 0.0 0.0 0.0 0.0 0.0 0.0 0.0 0.0 0.0 0.0 0.0 0.0 0.0 0.0 0.0 0.0 0.0 0.0 0.0 0.0 0.0 0.0 0.0 0.0 0.0 0.0 0.0 0.0 0.0 0.9 3.9 4.2 2.8 0.0 0.0 0.0 0.0 0.0 0.0 0.0 0.0 0.0
0.0 0.0 0.0 0.0 0.0 0.0 0.0 0.0 0.0 0.0 0.0 0.0 0.0 0.0 0.0 0.0 0.0 0.0 0.0 0.0 0.0 0.0 0.0 0.0 1.0 0.0 0.0 0.0 0.0 0.0 0.0 0.0 1.8 1.3 2.0 0.7 0.0 0.0 0.0 0.0 0.0 0.0 0.0 0.0
0.0 0.0 0.0 0.0 0.0 0.0 0.0 0.0 0.0 0.0 0.0 0.0 0.0 0.0 0.0 0.0 0.0 0.0 0.0 0.0 0.0 0.0 0.0 0.5 0.6 0.0 0.0 0.0 0.0 0.1 0.4 0.4 1.5 1.2 1.3 0.0 0.0 0.0 0.0 0.1 0.0 0.0 0.0 0.0
0.0 0.0 0.0 0.0 0.0 0.0 0.0 0.0 0.0 0.0 0.0 0.0 0.0 0.0 0.0 0.0 0.0 0.0 0.0 0.0 0.0 0.1 0.3 0.0 0.1 0.2 0.0 0.0 0.0 0.0 0.0 0.1 0.4 0.4 0.8 0.0 0.0 0.0 0.0 0.0 0.0 0.0 0.0 0.0
0.0 0.0 0.0 0.0 0.0 0.0 0.0 0.0 0.0 0.0 0.1 0.0 0.0 0.0 0.0 0.0 0.0 0.0 0.0 0.0 0.0 0.0 0.3 0.2 0.0 0.0 0.0 0.0 0.0 0.0 0.0 0.0 0.0 0.0 0.0 0.0 0.0 0.0 0.0 0.0 0.0 0.0 0.0 0.0
0.0 0.0 0.0 0.0 0.0 0.0 0.0 0.0 0.0 0.0 0.4 0.0 0.0 0.0 0.0 0.0 0.0 0.0 0.0 0.0 0.0 0.0 0.1 0.2 0.1 0.0 0.0 0.1 0.0 0.0 0.0 0.0 0.0 0.0 0.0 0.0 0.0 0.0 0.0 0.0 0.0 0.0 0.0 0.0
0.0 0.0 0.0 0.0 0.0 0.0 0.0 0.0 0.0 0.0 0.6 1.6 0.0 0.0 0.0 0.0 0.0 0.0 0.0 0.0 0.0 0.0 0.7 0.6 0.3 0.3 0.0 0.0 0.0 0.0 0.0 0.0 0.0 0.0 0.0 0.0 0.0 0.0 0.0 0.0 0.0 0.0 0.0 0.0
0.0 0.0 0.0 0.0 0.0 0.0 0.0 0.0 0.0 0.0 0.7 2.6 1.1 0.0 0.0 0.0 0.0 0.0 0.0 0.0 0.0 0.4 1.1 1.7 1.0 0.0 0.0 0.0 0.0 0.0 0.0 0.0 0.0 0.0 0.0 0.0 0.0 0.0 0.0 0.0 0.0 0.0 0.0 0.0
0.0 0.0 0.0 0.0 0.0 0.0 0.0 0.0 0.0 0.0 0.0 3.6 3.2 0.0 0.0 0.0 0.0 0.0 0.0 0.0 0.0 1.3 0.9 2.2 0.0 0.0 0.0 0.9 0.1 0.0 0.0 0.0 0.0 0.0 0.0 0.0 0.0 0.0 0.0 0.0 0.0 0.0 0.0 0.0
0.0 0.0 0.0 0.0 0.0 0.0 0.2 0.6 0.0 0.0 0.0 4.1 7.5 4.4 0.6 0.0 0.0 0.0 0.0 0.0 0.3 3.1 2.8 0.0 1.9 1.4 1.8 1.6 0.0 0.0 0.0 0.0 0.0 0.0 0.0 0.0 0.0 0.0 0.0 0.0 0.0 0.0 0.0 0.0
0.0 0.0 0.0 0.0 0.0 0.0 0.0 0.0 0.0 0.0 3.7 6.9 10.2 8.2 6.9 0.0 0.0 0.0 0.0 0.0 0.2 5.2 1.5 0.0 0.6 0.0 2.1 1.5 0.0 0.0 0.0 0.0 0.0 0.0 0.0 0.0 0.0 0.0 0.0 0.0 0.0 0.0 0.0 0.0
0.0 0.0 0.0 0.0 0.0 0.0 0.0 0.0 0.0 0.0 0.2 7.8 7.5 8.9 7.9 0.6 0.3 0.3 0.1 0.0 2.0 0.9 1.7 0.0 0.0 1.2 2.4 0.0 0.0 0.1 0.0 0.0 0.0 0.0 0.0 0.0 0.0 0.0 0.0 0.0 0.0 0.0 0.0 0.0
0.0 0.0 0.0 0.6 0.0 0.0 0.0 0.0 3.2 4.7 4.7 5.4 6.5 4.3 2.7 2.4 4.7 1.2 1.3 0.3 3.3 5.5 0.0 0.0 2.3 0.0 0.0 0.0 0.5 0.2 0.1 0.0 0.0 4.0 2.7 1.0 1.6 0.3 0.3 0.0 0.1 0.0 0.0 0.0
0.0 0.1 0.5 0.0 0.0 0.0 0.1 6.6 5.6 3.5 3.6 3.7 3.7 3.0 3.3 0.0 4.4 2.3 0.7 3.7 2.7 6.6 3.2 1.2 1.7 2.8 1.1 0.0 0.3 0.0 0.1 0.2 0.0 0.0 0.5 1.7 2.9 3.1 1.5 0.6 3.2 1.5 2.4 2.6
0.0 0.0 0.0 0.0 4.7 8.3 10.4 10.2 2.4 1.5 1.8 1.7 1.8 1.2 0.6 1.7 0.0 3.0 2.4 3.2 3.2 2.8 1.6 4.4 3.4 2.3 1.4 1.9 0.6 0.3 0.1 0.0 0.1 0.2 2.1 0.9 0.9 1.2 1.4 2.6 2.9 2.7 2.9 2.4
0.0 0.4 5.1 5.5 7.4 8.6 6.5 4.1 1.9 0.6 0.5 0.6 1.0 1.3 0.3 0.1 0.4 2.6 3.2 2.8 1.3 2.6 4.8 3.2 1.5 0.5 0.0 0.5 1.7 1.6 1.6 0.3 1.3 2.0 0.0 0.7 0.5 0.4 0.3 0.3 0.1 0.0 0.0 0.3
0.1 6.6 7.1 4.7 3.6 3.2 2.4 1.3 1.1 0.0 0.3 0.0 0.1 1.2 2.0 0.5 2.1 2.0 3.1 0.6 2.9 5.5 2.6 2.0 0.3 0.5 0.4 0.2 0.4 0.7 0.8 1.2 1.7 3.9 3.9 1.9 1.0 0.4 0.1 0.0 0.0 0.0 0.0 0.0
7.2 8.7 4.7 2.4 1.8 0.8 0.4 0.1 0.5 0.0 0.0 0.0 0.3 0.6 1.0 2.4 3.6 2.8 2.5 3.0 3.7 2.9 2.6 1.3 0.6 0.6 0.8 0.5 0.3 0.2 0.5 0.7 1.6 1.6 2.6 3.5 1.9 0.7 0.0 0.0 0.1 0.3 0.6 0.0
11.5 9.1 3.0 1.0 0.6 0.3 0.1 0.0 0.1 0.0 0.0 0.1 0.5 1.1 1.7 1.2 2.5 2.7 2.0 3.1 2.8 2.1 1.4 0.8 0.4 0.7 0.0 0.2 0.3 0.0 0.0 0.0 0.2 1.3 1.7 2.3 2.0 1.2 0.6 0.5 0.1 0.2 1.3 0.8
13.6 2.7 0.7 0.8 0.4 0.4 0.3 0.0 0.0 0.0 0.2 1.6 3.1 5.1 1.6 1.4 2.7 0.9 0.5 1.6 1.3 0.9 0.0 0.1 0.0 0.1 0.0 0.0 0.0 0.0 0.0 0.0 0.0 0.6 1.0 1.7 2.3 2.3 1.2 1.5 1.3 1.0 0.7 0.7

GFSNW_prec_snow_135.txt.gz
Snowfall_Accumulation
0.0 0.0 0.0 0.0 0.0 0.0 0.0 0.0 10.2 0.0 0.0 5.3 6.8 7.0 2.1 0.0 0.0 0.0 0.0 0.0 0.0 0.0 0.0 0.0 0.0 0.0 0.0 0.0 0.0 0.0 0.0 0.6 1.2 0.5 0.0 0.0 0.0 0.0 0.0 2.0 0.4 1.1 0.5 2.0
0.0 0.0 0.0 0.0 0.0 0.0 0.0 0.0 1.7 0.0 0.0 7.3 5.1 0.0 0.0 0.0 0.0 0.0 0.0 0.0 0.0 0.0 0.0 0.0 0.0 0.0 0.0 0.0 0.0 0.0 0.0 1.2 0.9 1.4 0.4 0.0 0.8 0.1 0.1 1.4 2.2 2.1 0.8 0.2
0.0 0.0 0.0 0.0 0.0 0.0 0.0 0.0 7.7 0.0 0.0 0.0 0.0 0.0 0.4 0.0 0.0 0.0 0.0 0.0 0.0 0.0 0.0 0.0 0.0 0.0 0.0 0.0 0.0 0.0 0.0 1.6 1.0 1.0 2.4 3.5 3.2 0.3 0.7 2.8 5.7 0.2 0.1 0.0
0.0 0.0 0.0 0.0 0.0 0.0 0.0 0.0 2.0 0.0 6.9 1.0 0.0 0.0 0.0 0.0 0.0 0.0 0.0 0.0 0.0 0.0 0.0 0.0 0.0 0.0 0.0 0.0 0.0 0.0 0.0 2.3 0.5 1.0 1.6 5.6 3.1 0.9 0.9 3.6 0.7 2.2 0.1 0.3
0.0 0.0 0.0 0.0 0.0 0.0 0.0 0.0 0.0 0.0 0.0 0.0 0.0 0.0 0.0 0.0 0.0 0.0 0.0 0.0 0.0 0.0 0.0 0.0 0.0 0.0 0.0 0.0 0.0 0.0 0.0 3.6 3.2 3.3 1.9 3.4 2.6 0.4 0.7 0.5 0.1 0.0 0.0 0.0
0.0 0.0 0.0 0.0 0.0 0.0 0.0 0.0 0.0 0.0 0.0 0.0 0.0 0.0 0.0 0.0 0.0 0.0 0.0 0.0 0.0 0.0 0.0 0.0 0.0 0.0 0.0 0.0 0.0 0.0 1.7 4.5 6.3 4.7 0.6 1.4 1.8 0.6 0.2 0.0 0.0 0.0 0.3 0.0
0.0 0.0 0.0 0.0 0.0 0.0 0.0 0.0 0.0 0.0 0.0 0.0 0.0 0.0 0.0 0.0 0.0 0.0 0.0 0.0 0.0 0.0 0.0 0.0 0.0 0.0 0.0 0.0 0.0 0.0 0.0 4.0 7.1 8.2 4.0 4.3 0.0 0.0 0.0 0.0 0.0 0.0 0.0 0.0
0.0 0.0 0.0 0.0 0.0 0.0 0.0 0.0 0.0 0.0 0.0 0.0 0.0 0.0 0.0 0.0 0.0 0.0 0.0 0.0 0.0 0.0 0.0 0.0 0.0 0.0 0.0 0.0 0.0 0.0 0.0 0.9 3.9 4.2 2.8 0.0 0.0 0.0 0.0 0.0 0.0 0.0 0.0 0.0
0.0 0.0 0.0 0.0 0.0 0.0 0.0 0.0 0.0 0.0 0.0 0.0 0.0 0.0 0.0 0.0 0.0 0.0 0.0 0.0 0.0 0.0 0.0 0.0 1.0 0.0 0.0 0.0 0.0 0.0 0.0 0.0 1.8 1.3 2.0 0.7 0.0 0.0 0.0 0.0 0.0 0.0 0.0 0.0
0.0 0.0 0.0 0.0 0.0 0.0 0.0 0.0 0.0 0.0 0.0 0.0 0.0 0.0 0.0 0.0 0.0 0.0 0.0 0.0 0.0 0.0 0.0 0.5 0.6 0.0 0.0 0.0 0.0 0.1 0.4 0.4 1.5 1.2 1.3 0.0 0.0 0.0 0.0 0.1 0.0 0.0 0.0 0.0
0.0 0.0 0.0 0.0 0.0 0.0 0.0 0.0 0.0 0.0 0.0 0.0 0.0 0.0 0.0 0.0 0.0 0.0 0.0 0.0 0.0 0.1 0.3 0.0 0.1 0.2 0.0 0.0 0.0 0.0 0.0 0.1 0.4 0.4 0.8 0.0 0.0 0.0 0.0 0.0 0.0 0.0 0.0 0.0
0.0 0.0 0.0 0.0 0.0 0.0 0.0 0.0 0.0 0.0 0.1 0.0 0.0 0.0 0.0 0.0 0.0 0.0 0.0 0.0 0.0 0.0 0.3 0.2 0.0 0.0 0.0 0.0 0.0 0.0 0.0 0.0 0.0 0.0 0.0 0.0 0.0 0.0 0.0 0.0 0.0 0.0 0.0 0.0
0.0 0.0 0.0 0.0 0.0 0.0 0.0 0.0 0.0 0.0 0.4 0.0 0.0 0.0 0.0 0.0 0.0 0.0 0.0 0.0 0.0 0.0 0.1 0.2 0.1 0.0 0.0 0.1 0.0 0.0 0.0 0.0 0.0 0.0 0.0 0.0 0.0 0.0 0.0 0.0 0.0 0.0 0.0 0.0
0.0 0.0 0.0 0.0 0.0 0.0 0.0 0.0 0.0 0.0 0.6 1.6 0.0 0.0 0.0 0.0 0.0 0.0 0.0 0.0 0.0 0.0 0.7 0.6 0.3 0.3 0.0 0.0 0.0 0.0 0.0 0.0 0.0 0.0 0.0 0.0 0.0 0.0 0.0 0.0 0.0 0.0 0.0 0.0
0.0 0.0 0.0 0.0 0.0 0.0 0.0 0.0 0.0 0.0 0.7 2.6 1.1 0.0 0.0 0.0 0.0 0.0 0.0 0.0 0.0 0.4 1.1 1.7 1.0 0.0 0.0 0.0 0.0 0.0 0.0 0.0 0.0 0.0 0.0 0.0 0.0 0.0 0.0 0.0 0.0 0.0 0.0 0.0
0.0 0.0 0.0 0.0 0.0 0.0 0.0 0.0 0.0 0.0 0.0 3.6 3.2 0.0 0.0 0.0 0.0 0.0 0.0 0.0 0.0 1.3 0.9 2.2 0.0 0.0 0.0 0.9 0.1 0.0 0.0 0.0 0.0 0.0 0.0 0.0 0.0 0.0 0.0 0.0 0.0 0.0 0.0 0.0
0.0 0.0 0.0 0.0 0.0 0.0 0.2 0.6 0.0 0.0 0.0 4.1 7.5 4.4 0.6 0.0 0.0 0.0 0.0 0.0 0.3 3.1 2.8 0.0 1.9 1.4 1.8 1.6 0.0 0.0 0.0 0.0 0.0 0.0 0.0 0.0 0.0 0.0 0.0 0.0 0.0 0.0 0.0 0.0
0.0 0.0 0.0 0.0 0.0 0.0 0.0 0.0 0.0 0.0 3.7 6.9 10.2 8.2 6.9 0.0 0.0 0.0 0.0 0.0 0.2 5.2 1.5 0.0 0.6 0.0 2.1 1.5 0.0 0.0 0.0 0.0 0.0 0.0 0.0 0.0 0.0 0.0 0.0 0.0 0.0 0.0 0.0 0.0
0.0 0.0 0.0 0.0 0.0 0.0 0.0 0.0 0.0 0.0 0.2 7.8 7.5 8.9 7.9 0.6 0.3 0.3 0.1 0.0 2.0 0.9 1.7 0.0 0.0 1.2 2.4 0.0 0.0 0.1 0.0 0.0 0.0 0.0 0.0 0.0 0.0 0.0 0.0 0.0 0.0 0.0 0.0 0.0
0.0 0.0 0.0 0.6 0.0 0.0 0.0 0.0 3.2 4.7 4.7 5.4 6.5 4.3 2.7 2.4 4.7 1.2 1.3 0.3 3.3 5.5 0.0 0.0 2.5 0.0 0.0 0.0 0.5 0.2 0.1 0.0 0.0 4.0 2.7 1.0 1.6 0.3 0.3 0.0 0.1 0.0 0.0 0.0
0.0 1.1 1.5 0.0 0.0 0.0 0.1 6.7 5.6 3.5 3.6 3.7 3.8 3.0 3.3 0.0 4.4 2.3 0.7 3.7 2.7 6.6 3.2 1.3 1.7 2.8 1.1 0.0 0.3 0.0 0.1 0.2 0.0 0.0 0.5 1.7 2.9 3.1 1.5 0.6 3.2 1.5 2.4 2.6
0.0 0.0 0.0 0.0 5.2 8.7 10.5 10.2 2.4 1.5 1.8 1.7 1.8 1.2 0.6 1.7 0.0 3.0 2.4 3.2 3.2 2.8 1.6 4.6 3.4 2.3 1.4 1.9 0.6 0.3 0.1 0.0 0.1 0.2 2.1 0.9 0.9 1.2 1.4 2.6 2.9 2.7 2.9 2.4
0.0 1.6 6.0 6.2 8.1 9.2 6.7 4.1 1.9 0.6 0.5 0.6 1.0 1.4 0.3 0.1 0.4 2.6 3.3 3.0 1.5 2.6 5.0 3.2 1.5 0.5 0.0 0.5 1.7 1.6 1.6 0.3 1.3 2.0 0.0 0.7 0.5 0.4 0.3 0.3 0.1 0.0 0.0 0.3
1.1 7.4 7.8 5.0 3.8 3.2 2.4 1.3 1.1 0.0 0.3 0.0 0.1 1.2 2.0 0.6 2.2 2.1 3.3 0.7 2.9 5.6 2.7 2.0 0.3 0.5 0.4 0.2 0.4 0.7 0.8 1.2 1.7 3.9 3.9 1.9 1.0 0.4 0.1 0.0 0.0 0.0 0.0 0.0
7.7 9.0 5.1 2.6 1.8 0.8 0.4 0.1 0.5 0.0 0.0 0.0 0.3 0.6 1.0 2.5 3.8 2.8 2.8 3.2 3.7 2.9 2.6 1.3 0.6 0.6 0.8 0.5 0.3 0.2 0.5 0.7 1.6 1.6 2.6 3.5 1.9 0.7 0.0 0.0 0.1 0.3 0.6 0.0
11.6 9.2 3.0 1.0 0.6 0.3 0.1 0.0 0.1 0.0 0.0 0.1 0.6 1.1 1.8 1.2 2.5 2.9 2.0 3.2 2.8 2.1 1.4 0.8 0.4 0.7 0.0 0.2 0.3 0.0 0.0 0.0 0.2 1.3 1.7 2.3 2.0 1.2 0.6 0.5 0.1 0.2 1.3 0.8
13.7 2.7 0.7 0.8 0.4 0.4 0.3 0.0 0.0 0.0 0.2 1.6 3.1 5.2 1.6 1.4 2.8 1.0 0.5 1.6 1.3 0.9 0.0 0.1 0.0 0.1 0.0 0.0 0.0 0.0 0.0 0.0 0.0 0.6 1.0 1.7 2.3 2.3 1.2 1.5 1.3 1.0 0.7 0.7

GFSNW_prec_snow_138.txt.gz
Snowfall_Accumulation
0.0 0.0 0.0 0.0 0.0 0.0 0.0 0.0 10.2 0.0 0.0 5.3 6.8 7.0 2.1 0.0 0.0 0.0 0.0 0.0 0.0 0.0 0.0 0.0 0.0 0.0 0.0 0.0 0.0 0.0 0.0 0.6 1.2 0.5 0.0 0.0 0.0 0.0 0.0 2.0 0.4 1.1 0.5 2.0
0.0 0.0 0.0 0.0 0.0 0.0 0.0 0.0 1.7 0.0 0.0 7.3 5.1 0.0 0.0 0.0 0.0 0.0 0.0 0.0 0.0 0.0 0.0 0.0 0.0 0.0 0.0 0.0 0.0 0.0 0.0 1.2 0.9 1.4 0.4 0.0 0.8 0.1 0.1 1.4 2.2 2.1 0.8 0.2
0.0 0.0 0.0 0.0 0.0 0.0 0.0 0.0 7.7 0.0 0.0 0.0 0.0 0.0 0.4 0.0 0.0 0.0 0.0 0.0 0.0 0.0 0.0 0.0 0.0 0.0 0.0 0.0 0.0 0.0 0.0 1.6 1.0 1.0 2.4 3.5 3.2 0.3 0.7 2.8 5.7 0.2 0.1 0.0
0.0 0.0 0.0 0.0 0.0 0.0 0.0 0.0 2.0 0.0 6.9 1.0 0.0 0.0 0.0 0.0 0.0 0.0 0.0 0.0 0.0 0.0 0.0 0.0 0.0 0.0 0.0 0.0 0.0 0.0 0.0 2.3 0.5 1.0 1.6 5.6 3.1 0.9 0.9 3.6 0.7 2.2 0.1 0.3
0.0 0.0 0.0 0.0 0.0 0.0 0.0 0.0 0.0 0.0 0.0 0.0 0.0 0.0 0.0 0.0 0.0 0.0 0.0 0.0 0.0 0.0 0.0 0.0 0.0 0.0 0.0 0.0 0.0 0.0 0.0 3.6 3.2 3.3 1.9 3.4 2.6 0.4 0.7 0.5 0.1 0.0 0.0 0.0
0.0 0.0 0.0 0.0 0.0 0.0 0.0 0.0 0.0 0.0 0.0 0.0 0.0 0.0 0.0 0.0 0.0 0.0 0.0 0.0 0.0 0.0 0.0 0.0 0.0 0.0 0.0 0.0 0.0 0.0 1.7 4.5 6.3 4.7 0.6 1.4 1.8 0.6 0.2 0.0 0.0 0.0 0.3 0.0
0.0 0.0 0.0 0.0 0.0 0.0 0.0 0.0 0.0 0.0 0.0 0.0 0.0 0.0 0.0 0.0 0.0 0.0 0.0 0.0 0.0 0.0 0.0 0.0 0.0 0.0 0.0 0.0 0.0 0.0 0.0 4.0 7.1 8.2 4.0 4.3 0.0 0.0 0.0 0.0 0.0 0.0 0.0 0.0
0.0 0.0 0.0 0.0 0.0 0.0 0.0 0.0 0.0 0.0 0.0 0.0 0.0 0.0 0.0 0.0 0.0 0.0 0.0 0.0 0.0 0.0 0.0 0.0 0.0 0.0 0.0 0.0 0.0 0.0 0.0 0.9 3.9 4.2 2.8 0.0 0.0 0.0 0.0 0.0 0.0 0.0 0.0 0.0
0.0 0.0 0.0 0.0 0.0 0.0 0.0 0.0 0.0 0.0 0.0 0.0 0.0 0.0 0.0 0.0 0.0 0.0 0.0 0.0 0.0 0.0 0.0 0.0 1.0 0.0 0.0 0.0 0.0 0.0 0.0 0.0 1.8 1.3 2.0 0.7 0.0 0.0 0.0 0.0 0.0 0.0 0.0 0.0
0.0 0.0 0.0 0.0 0.0 0.0 0.0 0.0 0.0 0.0 0.0 0.0 0.0 0.0 0.0 0.0 0.0 0.0 0.0 0.0 0.0 0.0 0.0 0.5 0.6 0.0 0.0 0.0 0.0 0.1 0.4 0.4 1.5 1.2 1.3 0.0 0.0 0.0 0.0 0.1 0.0 0.0 0.0 0.0
0.0 0.0 0.0 0.0 0.0 0.0 0.0 0.0 0.0 0.0 0.0 0.0 0.0 0.0 0.0 0.0 0.0 0.0 0.0 0.0 0.0 0.1 0.3 0.0 0.1 0.2 0.0 0.0 0.0 0.0 0.0 0.1 0.4 0.4 0.8 0.0 0.0 0.0 0.0 0.0 0.0 0.0 0.0 0.0
0.0 0.0 0.0 0.0 0.0 0.0 0.0 0.0 0.0 0.0 0.1 0.0 0.0 0.0 0.0 0.0 0.0 0.0 0.0 0.0 0.0 0.0 0.3 0.2 0.0 0.0 0.0 0.0 0.0 0.0 0.0 0.0 0.0 0.0 0.0 0.0 0.0 0.0 0.0 0.0 0.0 0.0 0.0 0.0
0.0 0.0 0.0 0.0 0.0 0.0 0.0 0.0 0.0 0.0 0.4 0.0 0.0 0.0 0.0 0.0 0.0 0.0 0.0 0.0 0.0 0.0 0.1 0.2 0.1 0.0 0.0 0.1 0.0 0.0 0.0 0.0 0.0 0.0 0.0 0.0 0.0 0.0 0.0 0.0 0.0 0.0 0.0 0.0
0.0 0.0 0.0 0.0 0.0 0.0 0.0 0.0 0.0 0.0 0.6 1.6 0.0 0.0 0.0 0.0 0.0 0.0 0.0 0.0 0.0 0.0 0.7 0.6 0.3 0.3 0.0 0.0 0.0 0.0 0.0 0.0 0.0 0.0 0.0 0.0 0.0 0.0 0.0 0.0 0.0 0.0 0.0 0.0
0.0 0.0 0.0 0.0 0.0 0.0 0.0 0.0 0.0 0.0 0.7 2.6 1.1 0.0 0.0 0.0 0.0 0.0 0.0 0.0 0.0 0.4 1.1 1.7 1.0 0.0 0.0 0.0 0.0 0.0 0.0 0.0 0.0 0.0 0.0 0.0 0.0 0.0 0.0 0.0 0.0 0.0 0.0 0.0
0.0 0.0 0.0 0.0 0.0 0.0 0.0 0.0 0.0 0.0 0.0 3.6 3.2 0.0 0.0 0.0 0.0 0.0 0.0 0.0 0.0 1.3 0.9 2.2 0.0 0.0 0.0 0.9 0.1 0.0 0.0 0.0 0.0 0.0 0.0 0.0 0.0 0.0 0.0 0.0 0.0 0.0 0.0 0.0
0.0 0.0 0.0 0.0 0.0 0.0 0.2 0.6 0.0 0.0 0.0 4.1 7.5 4.4 0.6 0.0 0.0 0.0 0.0 0.0 0.3 3.1 2.8 0.0 1.9 1.4 1.8 1.6 0.0 0.0 0.0 0.0 0.0 0.0 0.0 0.0 0.0 0.0 0.0 0.0 0.0 0.0 0.0 0.0
0.0 0.0 0.0 0.0 0.0 0.0 0.0 0.0 0.0 0.0 3.7 6.9 10.2 8.2 6.9 0.0 0.0 0.0 0.0 0.0 0.2 5.2 1.5 0.0 0.6 0.0 2.1 1.5 0.0 0.0 0.0 0.0 0.0 0.0 0.0 0.0 0.0 0.0 0.0 0.0 0.0 0.0 0.0 0.0
0.0 0.0 0.0 0.0 0.0 0.0 0.0 0.0 0.0 0.0 0.2 7.8 7.5 8.9 7.9 0.6 0.3 0.3 0.1 0.0 2.0 0.9 1.7 0.0 0.0 1.2 2.4 0.0 0.0 0.1 0.0 0.0 0.0 0.0 0.0 0.0 0.0 0.0 0.0 0.0 0.0 0.0 0.0 0.0
0.0 0.0 0.0 0.6 0.0 0.0 0.0 0.0 3.2 4.7 4.7 5.4 6.5 4.3 2.7 2.4 4.7 1.2 1.3 0.3 3.3 5.5 0.0 0.0 2.5 0.0 0.0 0.0 0.5 0.2 0.1 0.0 0.0 4.0 2.7 1.0 1.6 0.3 0.3 0.0 0.1 0.0 0.0 0.0
0.0 1.1 3.2 0.0 0.0 0.0 0.1 7.8 6.2 3.7 3.6 3.7 3.8 3.0 3.3 0.0 4.4 2.3 0.7 3.7 2.7 6.6 3.2 1.3 1.7 2.8 1.1 0.0 0.3 0.0 0.1 0.2 0.0 0.0 0.5 1.7 2.9 3.1 1.5 0.6 3.2 1.5 2.4 2.6
0.0 0.0 0.0 0.0 6.6 9.6 11.4 10.9 2.6 1.6 1.8 1.7 1.8 1.2 0.6 1.7 0.0 3.0 2.4 3.2 3.2 2.8 1.6 4.6 3.4 2.3 1.4 1.9 0.6 0.3 0.1 0.0 0.1 0.2 2.1 0.9 0.9 1.2 1.4 2.6 2.9 2.7 2.9 2.4
0.0 4.0 8.6 8.2 10.1 10.7 7.4 4.1 1.9 0.6 0.5 0.6 1.0 1.4 0.3 0.1 0.4 2.6 3.3 3.0 1.6 2.6 5.0 3.2 1.5 0.5 0.0 0.5 1.7 1.6 1.6 0.3 1.3 2.0 0.0 0.7 0.5 0.4 0.3 0.3 0.1 0.0 0.0 0.3
3.5 9.6 9.5 6.3 5.0 3.6 2.4 1.3 1.1 0.0 0.3 0.0 0.1 1.2 2.0 0.6 2.2 2.1 3.3 0.7 2.9 5.6 2.8 2.0 0.3 0.5 0.4 0.2 0.4 0.7 0.8 1.2 1.7 3.9 3.9 1.9 1.0 0.4 0.1 0.0 0.0 0.0 0.0 0.0
9.3 10.3 6.3 3.5 2.1 0.8 0.4 0.1 0.5 0.0 0.0 0.0 0.3 0.6 1.0 2.5 3.8 2.8 2.8 3.3 3.7 2.9 2.6 1.3 0.6 0.6 0.8 0.5 0.3 0.2 0.5 0.7 1.6 1.6 2.6 3.5 1.9 0.7 0.0 0.0 0.1 0.3 0.6 0.0
12.6 10.1 3.6 1.0 0.6 0.3 0.1 0.0 0.1 0.0 0.0 0.1 0.6 1.1 1.8 1.2 2.5 3.0 2.0 3.2 2.8 2.1 1.4 0.8 0.4 0.7 0.0 0.2 0.3 0.0 0.0 0.0 0.2 1.3 1.7 2.3 2.0 1.2 0.6 0.5 0.1 0.2 1.3 0.8
14.3 3.1 0.9 0.8 0.4 0.4 0.3 0.0 0.0 0.0 0.3 1.8 3.1 5.2 1.6 1.4 2.8 1.1 0.5 1.7 1.3 0.9 0.0 0.1 0.0 0.1 0.0 0.0 0.0 0.0 0.0 0.0 0.0 0.6 1.0 1.7 2.3 2.3 1.2 1.5 1.3 1.0 0.7 0.7

GFSNW_prec_snow_141.txt.gz
Snowfall_Accumulation
0.0 0.0 0.0 0.0 0.0 0.0 0.0 0.0 10.2 0.0 0.0 5.3 6.8 7.0 2.1 0.0 0.0 0.0 0.0 0.0 0.0 0.0 0.0 0.0 0.0 0.0 0.0 0.0 0.0 0.0 0.0 0.6 1.2 0.5 0.0 0.0 0.0 0.0 0.0 2.0 0.4 1.1 0.5 2.0
0.0 0.0 0.0 0.0 0.0 0.0 0.0 0.0 1.7 0.0 0.0 7.3 5.1 0.0 0.0 0.0 0.0 0.0 0.0 0.0 0.0 0.0 0.0 0.0 0.0 0.0 0.0 0.0 0.0 0.0 0.0 1.2 0.9 1.4 0.4 0.0 0.8 0.1 0.1 1.4 2.2 2.1 0.8 0.2
0.0 0.0 0.0 0.0 0.0 0.0 0.0 0.0 7.7 0.0 0.0 0.0 0.0 0.0 0.4 0.0 0.0 0.0 0.0 0.0 0.0 0.0 0.0 0.0 0.0 0.0 0.0 0.0 0.0 0.0 0.0 1.6 1.0 1.0 2.4 3.5 3.2 0.3 0.7 2.8 5.7 0.2 0.1 0.0
0.0 0.0 0.0 0.0 0.0 0.0 0.0 0.0 2.0 0.0 6.9 1.0 0.0 0.0 0.0 0.0 0.0 0.0 0.0 0.0 0.0 0.0 0.0 0.0 0.0 0.0 0.0 0.0 0.0 0.0 0.0 2.3 0.5 1.0 1.6 5.6 3.1 0.9 0.9 3.6 0.7 2.2 0.1 0.3
0.0 0.0 0.0 0.0 0.0 0.0 0.0 0.0 0.0 0.0 0.0 0.0 0.0 0.0 0.0 0.0 0.0 0.0 0.0 0.0 0.0 0.0 0.0 0.0 0.0 0.0 0.0 0.0 0.0 0.0 0.0 3.6 3.2 3.3 1.9 3.4 2.6 0.4 0.7 0.5 0.1 0.0 0.0 0.0
0.0 0.0 0.0 0.0 0.0 0.0 0.0 0.0 0.0 0.0 0.0 0.0 0.0 0.0 0.0 0.0 0.0 0.0 0.0 0.0 0.0 0.0 0.0 0.0 0.0 0.0 0.0 0.0 0.0 0.0 1.7 4.5 6.3 4.7 0.6 1.4 1.8 0.6 0.2 0.0 0.0 0.0 0.3 0.0
0.0 0.0 0.0 0.0 0.0 0.0 0.0 0.0 0.0 0.0 0.0 0.0 0.0 0.0 0.0 0.0 0.0 0.0 0.0 0.0 0.0 0.0 0.0 0.0 0.0 0.0 0.0 0.0 0.0 0.0 0.0 4.0 7.1 8.2 4.0 4.3 0.0 0.0 0.0 0.0 0.0 0.0 0.0 0.0
0.0 0.0 0.0 0.0 0.0 0.0 0.0 0.0 0.0 0.0 0.0 0.0 0.0 0.0 0.0 0.0 0.0 0.0 0.0 0.0 0.0 0.0 0.0 0.0 0.0 0.0 0.0 0.0 0.0 0.0 0.0 0.9 3.9 4.2 2.8 0.0 0.0 0.0 0.0 0.0 0.0 0.0 0.0 0.0
0.0 0.0 0.0 0.0 0.0 0.0 0.0 0.0 0.0 0.0 0.0 0.0 0.0 0.0 0.0 0.0 0.0 0.0 0.0 0.0 0.0 0.0 0.0 0.0 1.0 0.0 0.0 0.0 0.0 0.0 0.0 0.0 1.8 1.3 2.0 0.7 0.0 0.0 0.0 0.0 0.0 0.0 0.0 0.0
0.0 0.0 0.0 0.0 0.0 0.0 0.0 0.0 0.0 0.0 0.0 0.0 0.0 0.0 0.0 0.0 0.0 0.0 0.0 0.0 0.0 0.0 0.0 0.5 0.6 0.0 0.0 0.0 0.0 0.1 0.4 0.4 1.5 1.2 1.3 0.0 0.0 0.0 0.0 0.1 0.0 0.0 0.0 0.0
0.0 0.0 0.0 0.0 0.0 0.0 0.0 0.0 0.0 0.0 0.0 0.0 0.0 0.0 0.0 0.0 0.0 0.0 0.0 0.0 0.0 0.1 0.3 0.0 0.1 0.2 0.0 0.0 0.0 0.0 0.0 0.1 0.4 0.4 0.8 0.0 0.0 0.0 0.0 0.0 0.0 0.0 0.0 0.0
0.0 0.0 0.0 0.0 0.0 0.0 0.0 0.0 0.0 0.0 0.1 0.0 0.0 0.0 0.0 0.0 0.0 0.0 0.0 0.0 0.0 0.0 0.3 0.2 0.0 0.0 0.0 0.0 0.0 0.0 0.0 0.0 0.0 0.0 0.0 0.0 0.0 0.0 0.0 0.0 0.0 0.0 0.0 0.0
0.0 0.0 0.0 0.0 0.0 0.0 0.0 0.0 0.0 0.0 0.4 0.0 0.0 0.0 0.0 0.0 0.0 0.0 0.0 0.0 0.0 0.0 0.1 0.2 0.1 0.0 0.0 0.1 0.0 0.0 0.0 0.0 0.0 0.0 0.0 0.0 0.0 0.0 0.0 0.0 0.0 0.0 0.0 0.0
0.0 0.0 0.0 0.0 0.0 0.0 0.0 0.0 0.0 0.0 0.6 1.6 0.0 0.0 0.0 0.0 0.0 0.0 0.0 0.0 0.0 0.0 0.7 0.6 0.3 0.3 0.0 0.0 0.0 0.0 0.0 0.0 0.0 0.0 0.0 0.0 0.0 0.0 0.0 0.0 0.0 0.0 0.0 0.0
0.0 0.0 0.0 0.0 0.0 0.0 0.0 0.0 0.0 0.0 0.7 2.6 1.1 0.0 0.0 0.0 0.0 0.0 0.0 0.0 0.0 0.4 1.1 1.7 1.0 0.0 0.0 0.0 0.0 0.0 0.0 0.0 0.0 0.0 0.0 0.0 0.0 0.0 0.0 0.0 0.0 0.0 0.0 0.0
0.0 0.0 0.0 0.0 0.0 0.0 0.0 0.0 0.0 0.0 0.0 3.6 3.2 0.0 0.0 0.0 0.0 0.0 0.0 0.0 0.0 1.3 0.9 2.2 0.0 0.0 0.0 0.9 0.1 0.0 0.0 0.0 0.0 0.0 0.0 0.0 0.0 0.0 0.0 0.0 0.0 0.0 0.0 0.0
0.0 0.0 0.0 0.0 0.0 0.0 0.2 0.6 0.0 0.0 0.0 4.1 7.5 4.4 0.6 0.0 0.0 0.0 0.0 0.0 0.3 3.1 2.8 0.0 1.9 1.4 1.8 1.6 0.0 0.0 0.0 0.0 0.0 0.0 0.0 0.0 0.0 0.0 0.0 0.0 0.0 0.0 0.0 0.0
0.0 0.0 0.0 0.0 0.0 0.0 0.0 0.0 0.0 0.0 3.7 6.9 10.2 8.2 6.9 0.0 0.0 0.0 0.0 0.0 0.2 5.2 1.5 0.0 0.6 0.0 2.1 1.5 0.0 0.0 0.0 0.0 0.0 0.0 0.0 0.0 0.0 0.0 0.0 0.0 0.0 0.0 0.0 0.0
0.0 0.0 0.0 0.0 0.0 0.0 0.0 0.0 0.0 0.0 0.2 7.8 7.5 8.9 7.9 0.6 0.3 0.3 0.1 0.0 2.0 0.9 1.7 0.0 0.0 1.2 2.4 0.0 0.0 0.1 0.0 0.0 0.0 0.0 0.0 0.0 0.0 0.0 0.0 0.0 0.0 0.0 0.0 0.0
0.0 0.0 0.0 0.6 0.0 0.0 0.0 0.0 3.2 4.7 4.7 5.4 6.5 4.3 2.7 2.4 4.7 1.2 1.3 0.3 3.3 5.5 0.0 0.0 2.6 0.0 0.0 0.0 0.5 0.2 0.1 0.0 0.0 4.0 2.7 1.0 1.6 0.3 0.3 0.0 0.1 0.0 0.0 0.0
0.0 1.1 3.2 0.0 0.0 0.0 0.1 9.1 7.0 4.0 3.7 3.7 3.8 3.0 3.3 0.0 4.4 2.3 0.7 3.9 2.7 6.6 3.2 1.3 1.7 2.8 1.1 0.0 0.3 0.0 0.1 0.2 0.0 0.0 0.5 1.7 2.9 3.1 1.5 0.6 3.2 1.5 2.4 2.6
0.0 0.0 0.0 0.0 7.7 10.9 12.6 11.7 2.9 1.7 1.8 1.7 1.8 1.2 0.6 1.7 0.0 3.1 2.6 3.3 3.3 2.9 1.6 4.6 3.4 2.3 1.4 1.9 0.6 0.3 0.1 0.0 0.1 0.2 2.1 0.9 0.9 1.2 1.4 2.6 2.9 2.7 2.9 2.4
0.0 4.0 10.7 9.8 11.6 12.0 8.1 4.3 1.9 0.6 0.5 0.6 1.0 1.4 0.3 0.1 0.4 2.7 3.4 3.1 1.6 2.6 5.0 3.2 1.5 0.5 0.0 0.5 1.7 1.6 1.6 0.3 1.3 2.0 0.0 0.7 0.5 0.4 0.3 0.3 0.1 0.0 0.0 0.3
3.5 12.2 11.5 7.4 5.7 3.6 2.4 1.3 1.1 0.0 0.3 0.0 0.1 1.2 2.0 0.6 2.2 2.2 3.3 0.7 3.0 5.7 2.8 2.0 0.3 0.5 0.4 0.2 0.4 0.7 0.8 1.2 1.7 3.9 3.9 1.9 1.0 0.4 0.1 0.0 0.0 0.0 0.0 0.0
12.4 12.3 7.4 4.1 2.2 0.8 0.4 0.1 0.5 0.0 0.0 0.0 0.3 0.6 1.0 2.5 3.8 2.8 2.8 3.4 3.7 2.9 2.6 1.3 0.6 0.6 0.8 0.5 0.3 0.2 0.5 0.7 1.6 1.6 2.6 3.5 1.9 0.7 0.0 0.0 0.1 0.3 0.6 0.0
14.7 11.4 4.2 1.0 0.6 0.3 0.1 0.0 0.1 0.0 0.0 0.1 0.6 1.1 1.8 1.2 2.5 3.1 2.0 3.3 2.8 2.1 1.4 0.8 0.4 0.7 0.0 0.2 0.3 0.0 0.0 0.0 0.2 1.3 1.7 2.3 2.0 1.2 0.6 0.5 0.1 0.2 1.3 0.8
16.2 4.0 0.9 0.8 0.4 0.4 0.3 0.0 0.0 0.0 0.3 1.8 3.1 5.2 1.6 1.4 2.9 1.1 0.5 1.7 1.3 0.9 0.0 0.1 0.0 0.1 0.0 0.0 0.0 0.0 0.0 0.0 0.0 0.6 1.0 1.7 2.3 2.3 1.2 1.5 1.3 1.0 0.7 0.7